Regional Weather Roundup
Issued by NWS Kansas City/Pleasant Hill, MO

Home | Current Version | Previous Version | Graphics & Text | Print | Product List | Glossary Off
Versions: 1 2 3 4 5 6 7 8 9 10 11 12 13 14 15 16 17 18 19 20 21 22 23 24 25 26 27 28 29 30 31 32 33 34 35 36 37 38 39 40 41 42 43 44 45 46 47 48 49 50

000
ASUS43 KEAX 200410
RWREAX

WEATHER ROUNDUP FOR EASTERN KANSAS AND NORTHWEST MISSOURI
NATIONAL WEATHER SERVICE KANSAS CITY/PLEASANT HILL MO
1000 PM CST THU JAN 19 2017

KSZ040-057-103>105-MOZ028-029-037-043-200500-
...KANSAS CITY METROPOLITAN AREA...

CITY           SKY/WX    TMP DP  RH WIND       PRES   REMARKS
K.C. INTL      DRIZZLE   46  43  89 CALM      29.65R FOG
K.C. DOWNTOWN  LGT RAIN  48  47  96 CALM      29.64S
LEES SUMMIT    CLOUDY    46  45  96 W3        29.65R
OLATHE - IXD   CLOUDY    46  45  96 E3        29.64S
OLATHE - OJC   CLOUDY    45  45 100 CALM      29.64R FOG
LAWRENCE       FOG       45  45 100 CALM      29.64F VSB 1/2

$$

MOZ001>008-011>017-020>025-030>033-038>040-044>046-053-054-200500-
...NORTHERN AND CENTRAL MISSOURI...

CITY           SKY/WX    TMP DP  RH WIND       PRES   REMARKS
ST. JOSEPH     LGT RAIN  43  43 100 CALM      29.66R FOG
MOSBY          CLOUDY    45  45 100 CALM      29.64S FOG
WARRENSBURG    FOG       46  46 100 CALM      29.64R VSB 1/4
WHITEMAN AFB   FOG       47  47 100 CALM      29.62R VSB 1/2
CLINTON        FOG       48  48 100 CALM      29.64S VSB 1/2
SEDALIA        FOG       48  47  96 CALM      29.64S VSB 1/2
WARSAW         NOT AVBL
CHILLICOTHE      N/A     44  44 100 CALM      29.66S
KIRKSVILLE     FOG       42  42 100 CALM      29.64F VSB 1/4

$$

MOZ041-047>049-056>058-063>065-088>090-097-200500-
...EASTERN AND SOUTHERN MISSOURI...

CITY           SKY/WX    TMP DP  RH WIND       PRES   REMARKS
ST. LOUIS INTL LGT RAIN  48  46  93 N3        29.65F FOG
SPIRIT OF STL  LGT RAIN  46  46 100 NE3       29.64F FOG
COLUMBIA       FOG       46  46 100 SE6       29.64S VSB 1
JEFFERSON CITY CLOUDY    47  46  97 SE6       29.65S FOG
ROLLA          CLOUDY    47  47 100 CALM      29.63S FOG
OSAGE BEACH    FOG       48  48 100 NE5       29.63F VSB 3/4
SPRINGFIELD    FOG       50  49  96 SW10      29.63R VSB 1
BRANSON        FOG       41  41 100 CALM      29.64R VSB<1/4
JOPLIN         CLOUDY    50  47  89 CALM      29.64S
WEST PLAINS    FOG       48  48 100 SE6       29.65F VSB 1/2

$$

IAZ060-094-KSZ022-034>040-054-083-096-NEZ052-066-093-200500-
...KANSAS...SOUTHEAST NEBRASKA AND IOWA...

CITY           SKY/WX    TMP DP  RH WIND       PRES   REMARKS
TOPEKA         CLOUDY    46  43  89 NE3       29.63F FOG
MANHATTAN      CLOUDY    45  44  97 N3        29.62S FOG
EMPORIA        FOG       42  42 100 CALM      29.60F VSB 1/4
CHANUTE        CLOUDY    47  44  90 CALM      29.62S
WICHITA        MOCLDY    42  41  96 E5        29.59S
OMAHA          FOG       39  36  89 CALM      29.64F VSB 1/2
LINCOLN        CLOUDY    40  40 100 SE7       29.63F FOG
FALLS CITY     FOG       41  41 100 CALM      29.64F VSB 1/4
LAMONI         FOG       40  40 100 N3        29.65S VSB 1/4
DES MOINES     DRZL/FOG  38  37  97 E3        29.67S VSB 1/4

$$




USA.gov is the U.S. government's official web portal to all federal, state and local government web resources and services.